Theta_e
310 309 308 309 310 309 305 305 308 311 312 312 312 312 310 308 309 309 309 309 308 307 308 308 307 307 307 307 308 306 304 307 308 308 310 311 312 311 313 312 313 315 318 317 316 320 326 313 316 320 316 315 315 317
309 309 309 310 309 306 307 311 312 313 313 313 314 311 309 309 309 309 309 309 309 308 309 308 309 309 309 308 307 307 307 307 307 305 305 307 310 311 312 313 312 314 312 314 312 315 311 309 314 315 315 313 313 314
309 309 310 310 306 306 312 312 313 313 313 314 312 312 311 309 309 308 309 309 308 307 308 309 309 309 308 308 308 307 307 308 307 307 305 304 308 307 308 310 311 309 309 309 309 311 308 308 308 312 312 310 311 311
309 310 311 309 305 310 312 313 313 313 314 313 312 311 310 309 309 308 308 307 307 307 306 309 309 310 308 307 308 308 307 308 307 306 305 302 304 305 306 307 309 308 308 309 308 308 308 309 309 308 309 309 310 311
309 310 311 309 306 312 313 313 313 313 313 312 311 310 310 311 311 311 310 308 307 307 307 309 309 309 308 307 307 307 307 306 305 306 306 305 306 306 304 305 308 306 308 310 310 308 308 308 309 311 310 312 312 312
309 311 312 309 308 312 313 313 313 313 313 313 311 311 311 311 311 311 311 309 307 307 307 306 310 310 309 307 306 307 307 306 305 305 304 304 304 305 306 307 306 306 307 308 308 308 308 311 313 314 314 316 318 318
309 311 311 308 311 313 313 313 312 313 313 313 312 311 311 310 310 309 309 308 307 306 307 308 310 312 311 309 308 307 306 305 304 304 304 303 303 304 304 307 304 306 307 307 307 309 312 314 315 317 318 315 314 316
310 312 310 308 312 313 313 312 312 314 315 313 314 312 312 313 312 312 311 310 308 307 308 309 311 311 311 311 310 309 307 306 305 304 304 304 303 302 305 306 306 307 306 306 308 310 311 311 314 315 315 315 314 313
312 313 310 309 312 313 312 313 313 315 316 316 315 315 314 314 314 313 312 311 309 309 309 309 309 315 313 311 309 309 308 307 305 305 305 304 303 307 308 309 308 308 308 307 308 308 308 309 309 311 315 315 315 312
313 313 311 309 313 312 313 315 315 317 318 317 316 317 318 316 314 314 313 312 312 311 310 309 313 313 312 311 309 308 306 309 310 309 305 306 305 308 309 307 308 308 307 308 307 307 307 307 308 309 312 316 315 313
313 312 312 309 312 313 312 316 316 317 318 317 318 320 317 315 314 315 314 314 316 311 313 313 312 312 314 314 313 310 310 310 311 308 310 306 307 308 308 308 306 308 307 307 307 306 307 307 306 308 310 315 316 314
313 312 312 309 312 312 312 314 316 316 317 317 316 316 317 317 317 316 313 316 315 315 317 316 317 315 315 314 313 313 316 313 315 308 307 309 309 308 308 307 305 307 308 307 307 306 306 307 307 307 307 309 312 315
313 312 312 310 311 313 313 313 314 316 316 317 320 319 321 317 310 315 313 310 310 312 312 312 316 319 316 315 314 313 316 314 311 308 308 306 309 308 308 305 306 306 307 307 307 307 305 305 306 307 306 306 307 309
313 313 313 315 316 315 314 313 315 316 317 319 324 310 315 317 313 311 310 309 312 312 312 312 318 318 318 315 314 315 313 309 309 307 308 304 309 307 306 303 305 306 306 307 306 306 305 305 305 305 306 307 306 305
314 313 316 317 315 314 315 315 317 318 318 321 319 317 317 314 314 313 312 312 312 311 312 316 318 315 311 312 310 308 310 306 311 311 306 309 307 306 304 303 304 305 305 307 307 306 305 305 304 304 304 305 305 306
314 313 317 316 316 315 319 319 320 320 320 320 319 317 316 313 313 313 312 311 311 311 312 313 311 311 311 308 310 309 308 305 305 306 310 308 304 304 303 303 303 305 305 306 306 307 306 305 305 304 303 303 303 303
314 316 315 313 315 316 319 319 320 322 319 319 318 317 317 314 314 313 312 311 310 310 308 308 308 309 308 307 307 304 304 303 305 306 309 305 304 305 303 303 303 305 304 305 305 305 304 305 304 305 304 303 302 301
314 314 314 313 314 317 320 322 321 319 319 318 318 318 318 315 314 313 312 311 310 310 310 308 308 306 306 307 305 304 306 305 305 306 304 304 303 303 303 303 303 305 302 303 303 303 303 303 302 302 302 303 302 301
314 314 314 313 315 317 321 323 320 321 320 319 319 317 317 317 315 313 312 311 311 310 310 309 306 306 305 306 306 306 306 305 305 304 305 303 302 303 303 303 303 304 302 302 302 301 301 302 302 300 301 301 300 299
315 317 314 315 317 320 324 322 320 321 322 319 319 317 317 317 317 315 313 312 311 311 310 308 308 308 308 308 307 307 306 304 304 304 305 302 302 303 303 302 303 303 302 301 301 301 301 301 301 300 300 300 300 299
316 323 318 317 323 323 323 320 320 321 320 319 320 319 318 318 318 317 313 312 312 311 310 310 310 309 309 308 308 307 307 305 305 305 305 302 301 301 302 302 302 301 301 301 301 300 300 300 300 300 299 300 300 299
318 316 316 323 325 325 322 322 319 319 321 320 321 320 320 320 319 316 315 315 313 312 312 311 311 311 310 309 309 308 307 307 306 303 302 301 301 301 302 301 301 300 301 301 301 300 300 300 299 300 301 300 300 299
320 318 322 325 325 323 320 319 320 321 322 320 321 320 319 318 317 317 314 313 313 313 312 312 311 311 311 311 310 308 307 307 303 302 301 301 300 301 301 301 300 299 300 300 300 300 299 299 299 301 301 300 299 299
323 322 326 326 324 320 321 322 323 321 317 318 319 319 318 316 316 310 310 313 313 313 314 312 311 310 309 310 306 303 303 302 301 301 300 300 300 300 300 300 299 299 299 299 299 299 299 299 299 300 300 299 300 299
323 321 320 322 320 321 323 323 321 318 317 317 317 319 317 315 315 311 310 314 315 314 313 312 310 307 307 308 304 303 302 301 301 301 301 300 299 299 298 298 298 298 298 299 299 299 299 299 299 299 300 299 298 298
313 323 321 323 321 320 319 321 320 319 318 318 317 319 317 316 317 317 315 315 315 313 313 311 307 305 304 304 303 302 302 302 302 301 300 300 299 299 298 298 297 297 298 298 298 297 298 299 299 299 299 299 299 299
314 318 321 322 320 319 318 318 318 319 321 319 317 319 317 315 315 315 316 316 315 313 310 309 308 307 306 304 304 302 302 302 301 301 300 300 299 299 298 298 298 298 297 297 297 297 297 298 298 298 298 298 298 298
325 323 324 320 320 319 320 319 319 318 320 319 319 320 318 317 314 315 317 314 313 312 310 308 306 307 305 304 303 302 301 301 300 300 299 299 299 298 298 298 297 297 297 297 296 296 296 297 298 298 298 298 298 298
322 323 323 322 320 320 320 318 319 321 319 316 316 320 316 314 317 317 315 313 312 309 306 303 303 303 303 302 302 301 300 300 299 298 297 298 298 297 297 297 297 297 297 297 296 297 297 297 297 297 298 298 297 298
323 323 323 324 322 322 321 319 320 320 316 317 318 317 316 315 311 310 309 309 307 305 304 303 302 302 302 301 301 300 299 298 297 296 296 297 297 297 297 296 296 296 297 297 296 297 297 297 297 297 297 297 297 298
323 323 325 324 325 323 322 321 320 318 318 318 317 316 315 314 312 310 309 308 305 304 304 303 302 301 301 300 300 300 298 297 295 294 296 296 296 296 295 295 295 296 296 296 297 297 297 297 297 297 297 297 297 297
322 323 323 321 324 322 324 322 320 318 317 317 317 316 315 314 314 308 306 306 305 305 303 302 301 301 301 300 300 299 298 296 294 293 294 295 295 295 295 295 295 296 296 296 296 296 296 296 296 296 296 296 296 296
323 323 323 323 324 324 323 324 320 320 319 319 318 318 319 318 312 308 305 305 305 304 302 302 301 301 301 300 299 299 297 295 294 294 293 293 292 293 294 294 294 295 295 295 295 295 295 295 295 295 294 294 294 294
Wind_Speed
21 27 31 32 31 28 26 24 24 24 24 24 23 20 13 6 2 5 5 6 8 4 13 9 10 9 8 6 2 9 6 6 5 6 3 3 3 5 3 3 2 2 2 2 4 3 3 29 13 7 5 18 24 27
24 29 31 30 28 25 23 24 26 26 26 25 21 14 7 2 1 2 2 1 2 10 7 12 10 14 10 14 12 5 2 5 6 3 3 3 2 3 1 3 4 5 3 2 3 3 4 16 8 17 16 18 22 27
26 30 29 27 25 22 23 26 27 28 27 19 12 8 6 3 4 5 2 1 2 4 5 8 10 10 11 5 9 3 1 6 6 7 3 3 3 4 4 4 6 10 12 2 10 3 15 30 24 19 15 25 28 29
29 28 27 25 22 21 25 26 27 28 20 11 10 8 8 12 11 9 6 3 3 1 2 3 11 17 18 11 1 4 4 6 9 8 3 2 2 9 3 3 5 10 8 8 7 5 30 4 9 19 32 39 42 35
28 27 26 23 20 21 24 26 27 24 12 10 10 9 10 11 10 8 7 9 5 2 2 5 6 14 15 14 10 3 1 4 5 4 3 2 4 6 4 2 3 14 6 5 7 24 20 30 38 38 33 37 39 32
27 26 25 21 18 21 23 25 25 18 8 8 9 10 8 8 4 3 3 2 4 1 1 3 8 8 10 13 11 10 7 7 5 4 4 4 6 8 2 1 13 29 28 16 17 30 33 35 32 28 31 27 21 29
26 24 23 18 17 21 23 24 21 11 7 6 8 8 8 7 6 3 2 2 2 3 1 3 5 7 10 10 10 11 12 7 5 3 3 2 5 6 2 3 22 36 32 30 33 32 16 16 22 29 26 22 22 27
24 23 20 15 17 20 23 21 17 7 7 3 5 7 5 4 4 4 6 5 2 2 1 1 3 3 5 6 5 9 8 9 11 5 4 4 4 4 2 12 16 26 33 30 37 30 24 22 21 24 22 21 20 25
23 20 17 13 16 19 21 20 11 6 5 5 2 2 2 2 2 5 6 5 2 0 1 1 3 4 6 4 2 4 6 3 5 3 4 5 3 3 8 14 18 27 30 36 34 35 35 34 30 30 30 24 23 19
20 18 16 11 13 17 19 17 8 8 7 7 6 3 2 4 8 6 1 1 1 2 3 5 5 3 7 8 3 2 2 0 2 1 3 2 2 13 20 18 17 25 29 31 31 35 39 40 38 36 29 19 18 22
18 16 14 10 10 14 15 13 11 8 7 6 5 3 9 8 4 2 2 4 4 3 6 6 12 3 7 3 3 7 3 3 0 1 1 3 3 12 24 20 22 23 25 33 32 32 34 39 38 35 32 18 11 15
16 16 14 9 8 11 12 12 11 10 8 7 8 10 7 3 2 1 3 4 2 3 4 4 6 11 6 6 3 5 1 2 2 8 3 3 3 22 23 23 22 22 19 29 30 37 30 30 39 38 37 32 26 11
15 15 12 8 8 10 11 11 10 11 12 7 3 3 3 1 5 3 4 5 4 7 13 22 3 3 5 6 3 3 2 3 5 3 2 3 12 19 20 23 22 20 20 20 22 29 36 26 30 34 38 39 39 36
15 14 8 7 12 13 11 8 8 10 6 3 4 4 3 2 3 1 3 3 17 21 30 24 5 6 4 4 1 4 3 4 3 3 2 2 14 17 16 19 24 19 17 15 21 21 29 34 29 31 32 34 41 44
14 12 4 9 13 12 8 3 5 10 3 4 3 2 3 5 8 10 13 17 21 24 25 7 5 5 4 4 3 4 4 2 2 2 3 5 9 12 17 18 23 18 15 14 13 19 20 23 30 35 30 31 32 33
15 11 5 10 11 8 3 4 8 8 4 3 2 3 2 6 5 6 10 16 19 20 11 4 4 3 2 3 4 3 3 1 3 5 5 1 8 10 15 16 22 16 11 14 14 11 16 18 20 23 30 33 34 33
14 10 13 13 9 8 6 8 5 4 4 3 1 4 1 2 1 1 7 12 17 18 4 5 5 2 2 3 3 3 2 3 8 14 3 5 9 7 13 16 20 14 10 12 12 16 15 12 17 13 18 25 31 32
15 12 13 13 10 7 8 8 4 4 5 5 3 6 6 5 2 3 5 7 9 10 10 2 4 6 3 2 1 1 2 10 7 14 8 7 10 10 10 14 18 7 10 11 13 12 11 13 14 18 15 15 20 23
16 9 9 9 9 7 2 3 5 4 6 5 7 2 5 3 4 8 5 5 9 10 3 4 4 1 1 2 3 2 5 7 10 12 9 12 13 14 8 9 11 7 6 11 16 13 19 12 11 16 13 13 16 15
11 9 4 8 7 3 3 4 5 4 3 4 6 4 3 3 4 7 7 7 5 4 4 2 2 4 5 5 4 3 3 7 5 10 12 9 12 11 10 8 8 6 12 11 16 14 14 15 12 11 13 11 17 16
10 6 9 6 6 3 5 4 3 4 5 4 7 9 4 9 9 8 10 9 3 2 2 4 4 2 4 6 6 3 2 5 10 16 6 6 10 11 13 8 11 12 12 8 12 12 13 13 16 11 10 10 15 16
9 7 6 3 3 3 5 6 4 5 6 11 11 11 6 5 7 5 2 4 5 9 2 3 3 4 5 9 8 5 2 4 12 5 5 7 10 12 11 11 8 15 14 12 10 9 10 13 12 16 11 16 18 16
6 5 2 3 4 3 5 5 4 3 4 8 3 3 11 9 12 8 9 12 5 8 8 1 2 3 5 1 7 2 1 5 5 3 5 6 10 11 13 9 6 15 16 15 10 11 8 11 14 15 10 15 15 17
7 2 2 3 3 4 4 6 7 8 7 4 3 3 6 2 3 2 3 4 7 7 7 9 9 5 2 7 10 9 6 2 5 7 7 6 8 9 5 6 6 7 7 10 11 10 13 13 11 14 13 15 13 13
3 3 3 5 4 3 5 7 4 3 3 3 4 2 5 3 2 3 3 3 4 3 9 5 5 9 7 12 9 5 4 7 3 1 5 2 5 7 10 10 6 7 7 6 10 10 11 8 11 13 12 11 12 9
1 3 6 4 1 3 2 2 2 3 2 1 3 2 3 3 2 2 2 1 9 8 3 5 9 10 10 7 7 4 2 1 3 7 7 5 6 6 6 7 6 7 6 5 6 8 11 8 11 9 10 10 11 10
2 5 4 3 2 1 2 6 5 4 2 2 2 1 3 2 1 3 6 5 3 2 6 3 1 3 1 4 3 1 3 5 6 8 5 6 4 3 2 2 4 5 5 3 2 2 7 8 5 10 7 7 10 10
6 5 4 7 4 2 2 2 2 3 1 3 4 5 3 2 3 0 3 5 2 3 4 5 5 6 7 7 10 13 15 14 13 11 10 9 6 7 7 7 6 5 6 5 3 2 0 7 9 9 9 10 9 7
6 3 5 4 2 4 4 6 2 4 5 3 3 3 4 3 4 4 5 1 3 7 11 17 15 12 12 12 13 11 10 8 9 11 9 7 9 9 6 4 4 6 6 2 4 9 4 5 5 5 6 6 5 6
11 14 11 7 7 5 5 9 9 6 9 16 14 16 11 9 11 10 7 7 8 13 16 14 12 8 10 10 11 11 10 12 17 11 7 10 10 7 5 5 6 7 11 10 9 9 8 2 8 10 7 5 3 2
13 8 7 9 4 7 4 16 14 14 21 19 18 14 9 10 10 9 5 7 15 12 9 11 11 8 8 8 9 10 12 16 15 7 10 10 9 8 7 8 10 6 8 10 7 5 7 7 8 8 10 9 11 11
3 6 6 3 4 7 15 17 14 9 13 8 5 6 9 9 4 6 7 5 5 4 6 7 8 10 7 7 6 11 15 17 14 11 7 5 5 3 3 5 8 9 9 9 10 12 11 12 11 8 8 8 7 7
10 12 12 2 5 6 8 10 7 6 6 6 5 12 10 7 3 5 5 4 3 2 5 9 7 6 7 8 9 11 15 21 22 21 17 15 14 10 9 9 10 11 10 10 10 9 9 9 9 8 6 6 5 5
Wind_Direction
335 337 334 335 338 339 340 344 343 343 341 336 333 330 331 336 302 255 289 298 260 254 296 301 308 273 277 279 288 311 351 8 342 18 359 327 315 344 24 40 17 121 217 348 310 3 68 350 8 59 287 347 360 356
339 338 337 338 341 342 345 345 346 345 340 337 336 342 341 326 222 214 275 71 232 240 294 342 29 1 331 275 275 313 300 2 11 12 348 303 262 279 327 48 47 61 339 334 340 275 43 341 348 295 309 347 353 355
340 339 339 341 343 344 346 348 347 344 341 345 1 15 22 73 121 127 120 300 186 256 316 348 353 4 0 315 259 237 301 3 337 332 276 294 2 350 5 53 69 9 13 15 323 79 344 319 310 292 302 331 325 328
341 339 341 342 344 345 347 350 348 347 352 17 16 31 80 100 102 93 69 70 119 105 16 301 336 8 6 9 20 174 296 315 325 334 346 18 346 12 359 359 49 353 344 305 286 287 323 334 320 312 305 307 305 311
338 339 342 342 343 345 348 352 350 353 13 30 36 76 98 95 89 85 70 48 59 123 197 310 333 10 21 55 69 93 241 1 16 32 21 21 344 350 353 356 35 353 333 338 309 310 287 281 297 303 298 296 297 305
336 339 343 341 341 345 350 352 350 357 27 41 54 77 85 88 78 56 358 16 29 43 352 357 346 356 32 55 77 77 77 58 63 44 22 17 13 357 359 63 7 347 333 311 306 304 299 293 294 294 288 299 294 292
336 341 342 341 342 344 350 352 352 1 30 57 54 79 73 72 62 44 336 325 73 116 71 337 335 352 7 24 33 36 43 51 75 86 55 8 351 18 16 334 328 341 345 330 331 331 321 321 303 305 301 312 313 291
338 341 343 344 344 346 351 354 357 17 32 67 59 68 78 55 38 13 12 33 139 84 83 173 245 323 339 340 4 10 13 23 32 35 23 9 0 9 49 311 319 347 350 349 352 355 351 357 325 313 306 303 288 281
339 340 343 344 345 350 355 357 6 18 13 12 340 327 307 344 321 324 329 330 69 186 339 219 150 216 213 245 302 12 16 31 359 33 31 20 344 11 325 339 345 357 359 354 358 7 8 7 360 351 333 306 304 297
338 340 341 340 345 354 359 6 17 4 349 337 324 306 294 288 309 303 261 224 276 224 230 243 214 246 186 182 183 128 98 308 20 49 131 68 316 334 1 1 356 8 5 5 3 1 5 5 0 358 354 321 315 319
338 339 338 330 335 347 355 1 2 351 351 357 344 310 311 311 288 269 272 212 172 248 217 239 211 206 207 190 183 201 159 159 209 193 11 27 360 325 1 2 5 4 15 17 17 16 18 15 8 6 14 21 340 314
338 338 336 327 321 334 347 344 346 347 323 311 309 294 292 272 269 294 262 305 199 249 217 223 245 208 182 181 156 179 209 145 60 143 65 24 286 354 355 2 1 9 3 20 19 23 19 22 24 21 25 37 40 352
337 338 337 333 330 328 323 327 319 324 327 294 264 240 242 182 19 62 331 318 333 308 314 318 242 170 148 194 178 175 153 68 105 48 10 232 331 349 350 4 358 9 11 11 21 25 28 32 34 35 33 39 51 58
336 338 335 348 342 331 318 313 303 316 323 246 223 297 170 329 42 240 216 238 340 328 324 317 172 186 183 160 305 63 68 55 64 359 286 268 351 343 357 6 1 2 13 8 18 29 36 38 34 33 40 45 47 50
333 333 307 342 352 345 334 304 292 319 282 267 246 331 60 76 50 34 17 353 352 347 343 348 75 56 18 57 48 49 50 12 97 271 234 288 341 359 2 4 2 359 11 15 3 25 35 38 38 38 42 44 46 49
331 326 297 331 349 332 292 278 306 312 279 266 261 42 45 56 4 24 17 4 2 357 3 36 69 69 37 97 57 40 82 138 278 295 328 28 11 7 2 2 2 4 14 26 8 357 30 30 37 47 46 43 46 51
333 320 317 316 328 328 261 286 299 250 257 271 329 32 44 142 331 356 18 16 11 18 346 41 38 339 23 63 32 55 135 225 329 3 35 26 7 353 2 0 2 6 46 38 36 31 28 33 25 24 38 41 37 42
328 312 310 311 322 333 252 265 255 255 237 244 271 274 285 201 221 144 52 31 29 20 26 59 41 29 37 44 328 252 357 355 11 9 46 24 360 12 357 355 12 32 45 49 46 48 33 30 39 39 37 41 35 43
323 313 309 302 323 334 267 226 224 260 253 208 205 270 18 322 245 162 102 99 64 48 52 45 65 95 218 180 167 100 353 6 358 10 9 3 3 3 360 8 32 49 43 52 39 37 42 46 48 35 46 48 49 51
320 319 320 323 327 329 294 244 231 257 279 223 202 201 264 267 289 193 168 154 114 83 72 84 173 181 182 193 209 241 282 360 356 346 351 6 8 16 8 39 57 20 58 75 44 31 37 41 46 39 34 53 45 59
331 317 321 326 328 259 258 282 269 274 297 297 245 227 233 252 260 228 192 166 106 72 132 185 184 236 239 254 244 236 304 333 337 334 337 15 16 17 20 70 54 50 50 80 46 38 28 31 40 46 69 77 50 55
336 336 329 333 266 245 257 242 248 278 264 257 257 243 210 210 247 192 239 178 90 88 279 212 278 288 254 229 213 201 324 304 347 62 79 32 24 26 68 71 36 52 53 37 39 52 33 18 14 28 74 80 66 64
347 345 318 246 248 248 251 258 239 249 330 321 285 357 38 25 359 11 36 9 68 274 251 229 293 84 38 334 178 117 28 326 128 85 46 32 43 63 93 70 52 53 47 40 57 48 70 41 58 72 85 75 60 63
323 301 266 279 267 260 261 229 154 149 244 294 307 18 49 347 243 100 192 260 267 290 249 84 99 29 96 153 132 137 126 54 89 58 70 57 53 68 67 43 67 49 35 30 49 48 68 80 73 78 90 93 80 71
304 234 254 269 258 303 339 342 70 134 236 274 303 83 172 171 165 180 208 275 310 31 119 52 53 111 101 154 161 162 118 68 114 79 46 89 99 87 99 93 88 57 43 53 55 55 51 46 76 71 77 77 92 80
135 229 200 246 29 117 243 283 260 197 165 291 300 40 113 105 18 338 239 307 60 118 8 75 119 107 114 129 156 170 0 3 113 128 108 97 69 84 91 68 42 25 24 48 85 74 62 62 78 82 71 88 90 71
282 268 220 180 116 256 277 264 276 285 241 175 306 285 82 62 274 270 320 346 179 99 86 68 359 268 109 115 23 37 80 133 131 123 107 71 52 84 72 39 24 5 318 329 73 69 66 78 84 93 91 74 72 81
241 274 161 171 185 262 257 292 276 250 300 75 23 350 43 233 219 242 10 171 123 93 73 48 51 98 81 112 109 117 106 102 104 82 96 111 78 61 65 70 48 11 15 55 46 335 43 92 92 88 82 91 70 78
239 214 109 239 178 245 222 215 189 70 100 43 171 180 220 197 111 48 29 33 96 111 111 110 104 126 121 130 116 104 100 82 41 33 50 66 102 88 66 62 37 30 22 66 98 51 40 67 99 69 78 62 56 58
250 243 198 207 185 227 222 177 143 137 106 118 119 140 139 106 75 67 75 71 138 124 121 112 108 100 100 90 91 79 64 33 20 33 64 92 89 89 87 54 31 46 43 45 110 63 21 73 103 76 78 84 81 79
244 241 228 221 247 215 192 148 141 117 122 138 147 135 114 125 95 53 32 121 124 123 107 103 102 92 83 62 47 50 44 31 29 76 108 107 94 82 68 54 59 61 75 56 53 62 83 84 88 91 80 60 53 48
225 213 228 212 181 179 163 156 153 131 157 155 157 157 140 154 126 94 130 155 109 80 73 65 108 102 74 68 73 62 42 37 50 75 110 128 102 73 28 83 85 67 81 69 68 71 69 72 75 74 80 75 66 56
265 272 282 157 155 182 204 183 143 127 136 152 159 165 165 163 135 139 135 285 305 43 83 100 112 102 81 76 62 55 49 54 64 64 66 68 66 76 103 97 94 85 83 87 81 79 79 76 73 68 57 38 26 28